Hourly Data Report for August 21, 2003

SHERBROOKE A
QUEBEC

45°26'00.000" N
71°41'00.000" W
241.40 m
7028124
71610
YSC

Download Data

Hourly Data (August 2003)
Hourly Data Report for August 21, 2003
TIME
LST
Temp Definition
°C
Dew Point Definition
°C
Rel Hum Definition
%
Precip. Amount Definition
mm

Wind Dir Definition
10's deg

Wind Spd Definition
km/h
Visibility Definition
km
Stn Press Definition
kPa
Hmdx Definition


Wind Chill Definition


Weather Definition


00:00 17.2 16.0 93   11 4 6.4 98.96      
01:00 18.3 17.1 93     0 12.9 98.93      
02:00 17.7 16.6 93     0 8.0 98.95      
03:00 17.9 16.8 93   14 4 9.7 98.93      
04:00 18.5 16.7 89     0 15.0 98.90      
05:00 16.9 15.7 93     0 8.0 98.94      
06:00 16.2 15.2 94     0 0.8 98.93      
07:00 20.5 17.0 80   22 6 24.1 98.93 26   Mainly Clear
08:00 22.3 16.7 71   22 9 24.1 98.88 27   Mainly Clear
09:00 24.5 16.9 63   20 11 24.1 98.80 30   Mainly Clear
10:00 24.4 16.7 62   21 15 24.1 98.75 29   Mainly Clear
11:00 26.6 17.0 56   22 9 24.1 98.70 32   Mainly Clear
12:00 27.1 17.2 55   24 9 24.1 98.65 33   Mainly Clear
13:00 27.9 18.1 55   23 15 24.1 98.61 34   Mainly Clear
14:00 27.0 17.4 56   26 11 24.1 98.54 33   Mainly Clear
15:00 28.2 17.7 53   20 9 24.1 98.47 34   Mainly Clear
16:00 27.9 17.0 52   23 9 24.1 98.39 33   Clear
17:00 27.2 17.6 56   22 9 15.0 98.35 33    
18:00 25.7 17.7 61   25 6 15.0 98.33 31    
19:00 19.8 17.5 87   16 4 12.9 98.31      
20:00 19.9 17.0 83   17 7 12.9 98.32      
21:00 17.8 16.3 91   12 4 5.6 98.26      
22:00 16.4 15.2 93     0 5.6 98.18      
23:00 16.0 15.0 94     0 5.6 98.18      

Notes on Data Quality.

Legend

  • E = Estimated
  • M = Missing
  • NA = Not Available*
  • [empty] = Indicates an unobserved value
Date modified: